When you browse on this site, cookies collect data to enhance your experience and personalize the content and advertising you see.
Visit our Privacy Policy to learn more. By continuing to use the site, you agree to this use of cookies and data.
  • în România
  • Lista ţărilor
  • Pe 7 zile
  • Temperatura apei
  • Hartă satelitară
  • Meteo pe hartă
  • Widget-uri
  • user-avatar
    Intrare

    Meteo pe oră la Klyakovo

    Astăzi, 16 Ianuarie, Miercuri

    Timp Temperatura Precipitaţii Vânt Presiune Umiditate
    00:00 -9°C° 0.1 mm 4 m/s 728 mmHg 90%
    01:00 -10°C° 0.1 mm 4 m/s 728 mmHg 91%
    02:00 -10°C° 0 mm 4 m/s 728 mmHg 91%
    03:00 -9°C° 0 mm 3 m/s 729 mmHg 91%
    04:00 -9°C° 0 mm 3 m/s 729 mmHg 91%
    05:00 -10°C° 0 mm 3 m/s 729 mmHg 91%
    06:00 -10°C° 0 mm 3 m/s 729 mmHg 92%
    07:00 -12°C° 0 mm 3 m/s 730 mmHg 93%
    08:00 -12°C° 0 mm 3 m/s 730 mmHg 94%
    09:00 -12°C° 0 mm 3 m/s 730 mmHg 93%
    10:00 -10°C° 0 mm 3 m/s 730 mmHg 92%
    11:00 -10°C° 0 mm 3 m/s 731 mmHg 91%
    12:00 -9°C° 0 mm 3 m/s 731 mmHg 91%
    13:00 -9°C° 0 mm 3 m/s 731 mmHg 91%
    14:00 -9°C° 0 mm 3 m/s 731 mmHg 90%
    15:00 -9°C° 0 mm 3 m/s 731 mmHg 91%
    16:00 -9°C° 0 mm 3 m/s 732 mmHg 92%
    17:00 -8°C° 0 mm 2 m/s 732 mmHg 92%
    18:00 -9°C° 0 mm 3 m/s 732 mmHg 92%
    19:00 -9°C° 0 mm 3 m/s 733 mmHg 93%
    20:00 -9°C° 0 mm 3 m/s 733 mmHg 93%
    21:00 -9°C° 0 mm 3 m/s 733 mmHg 93%
    22:00 -9°C° 0 mm 3 m/s 734 mmHg 92%
    23:00 -9°C° 0 mm 3 m/s 734 mmHg 92%

    Mâine, 17 Ianuarie, Joi

    Timp Temperatura Precipitaţii Vânt Presiune Umiditate
    00:00 -9°C° 0 mm 3 m/s 734 mmHg 91%
    01:00 -9°C° 0 mm 3 m/s 734 mmHg 90%
    02:00 -9°C° 0 mm 3 m/s 735 mmHg 89%
    03:00 -10°C° 0 mm 3 m/s 735 mmHg 91%
    04:00 -13°C° 0 mm 3 m/s 735 mmHg 92%
    05:00 -13°C° 0 mm 2 m/s 735 mmHg 94%
    06:00 -13°C° 0 mm 3 m/s 734 mmHg 93%
    07:00 -12°C° 0 mm 3 m/s 734 mmHg 93%
    08:00 -11°C° 0 mm 4 m/s 734 mmHg 93%
    09:00 -10°C° 0.4 mm 4 m/s 733 mmHg 92%
    10:00 -10°C° 0.4 mm 5 m/s 732 mmHg 91%
    11:00 -8°C° 0.4 mm 5 m/s 732 mmHg 91%
    12:00 -7°C° 0.4 mm 5 m/s 731 mmHg 90%
    13:00 -6°C° 0.4 mm 5 m/s 731 mmHg 89%
    14:00 -5°C° 0.4 mm 5 m/s 730 mmHg 89%
    15:00 -4°C° 0.3 mm 5 m/s 729 mmHg 88%
    16:00 -3°C° 0.3 mm 6 m/s 729 mmHg 87%
    17:00 -2°C° 0.3 mm 6 m/s 728 mmHg 87%
    18:00 -2°C° 0.6 mm 6 m/s 727 mmHg 86%
    19:00 -2°C° 0.6 mm 7 m/s 727 mmHg 86%
    20:00 -1°C° 0.6 mm 7 m/s 726 mmHg 86%
    21:00 -1°C° 0.1 mm 7 m/s 726 mmHg 85%
    22:00 -1°C° 0.1 mm 6 m/s 727 mmHg 83%
    23:00 -1°C° 0.1 mm 6 m/s 727 mmHg 82%

    Poimâine, 18 Ianuarie, Vineri

    Timp Temperatura Precipitaţii Vânt Presiune Umiditate
    00:00 -2°C° 0 mm 6 m/s 727 mmHg 82%
    01:00 -2°C° 0 mm 6 m/s 727 mmHg 81%
    02:00 -2°C° 0 mm 6 m/s 728 mmHg 81%
    03:00 -2°C° 0 mm 6 m/s 727 mmHg 80%
    04:00 -2°C° 0 mm 6 m/s 727 mmHg 80%
    05:00 -2°C° 0 mm 7 m/s 727 mmHg 80%
    06:00 -2°C° 0 mm 7 m/s 728 mmHg 80%
    07:00 -2°C° 0 mm 7 m/s 728 mmHg 80%
    08:00 -2°C° 0 mm 7 m/s 728 mmHg 81%
    09:00 -2°C° 0.1 mm 6 m/s 728 mmHg 82%
    10:00 -2°C° 0.1 mm 6 m/s 729 mmHg 83%
    11:00 -2°C° 0.1 mm 6 m/s 729 mmHg 84%
    12:00 -1°C° 0.2 mm 5 m/s 729 mmHg 86%
    13:00 -1°C° 0.2 mm 4 m/s 729 mmHg 88%
    14:00 -1°C° 0.2 mm 4 m/s 730 mmHg 90%
    15:00 -3°C° 0.6 mm 4 m/s 730 mmHg 91%
    16:00 -4°C° 0.6 mm 4 m/s 730 mmHg 92%
    17:00 -5°C° 0.6 mm 4 m/s 730 mmHg 92%
    18:00 -7°C° 0.5 mm 4 m/s 731 mmHg 92%
    19:00 -8°C° 0.5 mm 4 m/s 731 mmHg 91%
    20:00 -8°C° 0.5 mm 3 m/s 732 mmHg 91%
    21:00 -9°C° 0.1 mm 3 m/s 732 mmHg 90%
    22:00 -9°C° 0.1 mm 3 m/s 733 mmHg 89%
    23:00 -9°C° 0.1 mm 3 m/s 734 mmHg 88%

    19 Ianuarie, Sâmbătă

    Timp Temperatura Precipitaţii Vânt Presiune Umiditate
    00:00 -11°C° 0 mm 4 m/s 734 mmHg 88%
    01:00 -11°C° 0 mm 4 m/s 735 mmHg 87%
    02:00 -11°C° 0 mm 4 m/s 735 mmHg 86%
    03:00 -11°C° 0 mm 4 m/s 735 mmHg 86%
    04:00 -11°C° 0 mm 4 m/s 736 mmHg 86%
    05:00 -11°C° 0 mm 4 m/s 736 mmHg 86%
    06:00 -11°C° 0 mm 4 m/s 736 mmHg 86%
    07:00 -11°C° 0 mm 4 m/s 737 mmHg 86%
    08:00 -11°C° 0 mm 4 m/s 737 mmHg 86%
    09:00 -10°C° 0 mm 4 m/s 737 mmHg 84%
    10:00 -10°C° 0 mm 5 m/s 738 mmHg 83%
    11:00 -10°C° 0 mm 5 m/s 738 mmHg 81%
    12:00 -8°C° 0 mm 5 m/s 739 mmHg 81%
    13:00 -8°C° 0 mm 5 m/s 739 mmHg 81%
    14:00 -7°C° 0 mm 4 m/s 739 mmHg 81%
    15:00 -8°C° 0 mm 4 m/s 739 mmHg 83%
    16:00 -8°C° 0 mm 4 m/s 740 mmHg 86%
    17:00 -9°C° 0 mm 4 m/s 740 mmHg 88%
    18:00 -8°C° 0 mm 4 m/s 740 mmHg 87%
    19:00 -8°C° 0 mm 4 m/s 740 mmHg 86%
    20:00 -8°C° 0 mm 5 m/s 740 mmHg 85%
    21:00 -8°C° 0 mm 4 m/s 741 mmHg 85%
    22:00 -8°C° 0 mm 4 m/s 741 mmHg 86%
    23:00 -8°C° 0 mm 4 m/s 741 mmHg 86%

    20 Ianuarie, Duminică

    Timp Temperatura Precipitaţii Vânt Presiune Umiditate
    00:00 -9°C° 0 mm 4 m/s 741 mmHg 87%
    01:00 -9°C° 0 mm 4 m/s 742 mmHg 88%
    02:00 -9°C° 0 mm 4 m/s 742 mmHg 89%
    03:00 -9°C° 0 mm 4 m/s 742 mmHg 89%
    04:00 -9°C° 0 mm 4 m/s 742 mmHg 89%
    05:00 -9°C° 0 mm 4 m/s 742 mmHg 89%
    06:00 -8°C° 0 mm 3 m/s 742 mmHg 89%
    07:00 -8°C° 0 mm 3 m/s 742 mmHg 89%
    08:00 -8°C° 0 mm 3 m/s 742 mmHg 89%
    09:00 -8°C° 0 mm 3 m/s 742 mmHg 88%
    10:00 -8°C° 0 mm 3 m/s 742 mmHg 88%
    11:00 -7°C° 0 mm 3 m/s 742 mmHg 87%
    12:00 -7°C° 0 mm 3 m/s 742 mmHg 87%
    13:00 -7°C° 0 mm 3 m/s 742 mmHg 87%
    14:00 -7°C° 0 mm 3 m/s 742 mmHg 86%
    15:00 -6°C° 0.1 mm 2 m/s 742 mmHg 89%
    16:00 -7°C° 0.1 mm 2 m/s 742 mmHg 91%
    17:00 -7°C° 0.1 mm 2 m/s 743 mmHg 93%
    18:00 -8°C° 0 mm 2 m/s 743 mmHg 94%
    19:00 -9°C° 0 mm 2 m/s 743 mmHg 94%
    20:00 -9°C° 0 mm 2 m/s 743 mmHg 95%
    21:00 -10°C° 0 mm 2 m/s 743 mmHg 95%
    22:00 -12°C° 0 mm 2 m/s 744 mmHg 96%
    23:00 -12°C° 0 mm 2 m/s 744 mmHg 96%

    21 Ianuarie, Luni

    Timp Temperatura Precipitaţii Vânt Presiune Umiditate
    00:00 -12°C° 0 mm 2 m/s 744 mmHg 96%
    01:00 -10°C° 0 mm 1 m/s 744 mmHg 96%
    02:00 -10°C° 0 mm 1 m/s 745 mmHg 96%
    03:00 -10°C° 0 mm 1 m/s 745 mmHg 96%
    04:00 -10°C° 0 mm 1 m/s 745 mmHg 97%
    05:00 -10°C° 0 mm 1 m/s 745 mmHg 97%
    06:00 -11°C° 0 mm 1 m/s 745 mmHg 97%
    07:00 -11°C° 0 mm 1 m/s 746 mmHg 97%
    08:00 -11°C° 0 mm 1 m/s 746 mmHg 97%
    09:00 -11°C° 0 mm 1 m/s 747 mmHg 96%
    10:00 -13°C° 0 mm 2 m/s 747 mmHg 95%
    11:00 -13°C° 0 mm 2 m/s 747 mmHg 94%
    12:00 -13°C° 0 mm 2 m/s 747 mmHg 93%
    13:00 -13°C° 0 mm 2 m/s 748 mmHg 93%
    14:00 -13°C° 0 mm 2 m/s 748 mmHg 92%
    15:00 -15°C° 0 mm 2 m/s 748 mmHg 93%
    16:00 -16°C° 0 mm 2 m/s 749 mmHg 94%
    17:00 -17°C° 0 mm 2 m/s 749 mmHg 96%
    18:00 -17°C° 0 mm 2 m/s 749 mmHg 96%
    19:00 -18°C° 0 mm 2 m/s 750 mmHg 96%
    20:00 -18°C° 0 mm 2 m/s 750 mmHg 97%
    21:00 -19°C° 0 mm 2 m/s 750 mmHg 97%
    22:00 -20°C° 0 mm 2 m/s 751 mmHg 97%
    23:00 -20°C° 0 mm 2 m/s 751 mmHg 98%
    Arată mai mult